[[{"header":{"parameterUnit":"m.s-1","parameterCategory":1,"la1":30.2991,"la2":30.254,"lo1":-89.0895,"lo2":-89.0444,"dy":0.0017,"dx":0.0017,"nx":28,"ny":28,"refTime":"2024-03-24T03:00:00:Z","depth":0,"parameterNumber":2,"parameterNumberName":"U-component_of_WINDS"},"data":[0,0,0,0,0,0,0,0,0,0,0,0,0,0,0,0,0,0,0,0,0,0,0,0,0,0,0,0,0,0,0,0,0,0,0,0,0,0,0,0,0,0,0,0,0,0,0,0,0,0,0,0,0,0,0,0,0,0,-5.2678,-5.2678,0,-5.2696,-5.2696,-5.2696,-5.2583,-5.258,-5.2577,-5.2574,-5.2595,-5.2598,-5.2602,0,0,0,0,0,0,0,0,0,0,0,0,0,-5.2547,-5.255,-5.2678,-5.2678,-5.2678,-5.2696,-5.2696,-5.2696,-5.2584,-5.258,-5.2576,-5.2572,-5.2593,-5.2598,-5.2602,0,0,0,0,0,0,0,0,0,0,0,0,0,-5.2589,-5.2551,-5.2677,-5.2624,-5.2619,-5.2696,-5.2696,-5.2696,-5.2585,-5.258,-5.2575,-5.2571,-5.2592,-5.2597,-5.2602,-5.2732,0,0,-5.2619,-5.2621,0,0,0,0,0,0,0,0,-5.2587,-5.2594,-5.2632,-5.2628,-5.2623,-5.2632,-5.2657,-5.2708,-5.2586,-5.2598,-5.2574,-5.2568,-5.2611,-5.2615,-5.2629,-5.2733,-5.2734,-5.2619,-5.2622,-5.2625,-5.2626,0,0,0,0,0,0,0,-5.2584,-5.2592,-5.2685,-5.2632,-5.2627,-5.26,-5.26,-5.2667,-5.2631,-5.2597,-5.2588,-5.2592,-5.2608,-5.2624,-5.2628,-5.2734,-5.2619,-5.2624,-5.2627,-5.2629,-5.2945,-5.295,0,0,0,0,0,0,-5.2588,-5.2591,-5.2684,-5.2685,-5.2592,-5.2606,-5.2607,-5.2634,-5.263,-5.2625,-5.2596,-5.2587,-5.2617,-5.2622,-5.2629,-5.278,-5.2625,-5.263,-5.2633,-5.294,-5.2946,-5.2952,0,0,0,0,0,0,-5.2585,-5.2597,-5.2683,-5.2636,-5.2645,-5.2613,-5.2645,-5.2637,-5.2653,-5.263,-5.2623,-5.2619,-5.2614,-5.2621,-5.2707,-5.2779,-5.2632,-5.2637,-5.2934,-5.2942,-5.2949,-5.3084,0,0,0,0,0,0,-5.2582,-5.2597,-5.2645,-5.2638,-5.2648,-5.2761,-5.265,-5.2641,-5.2662,-5.265,-5.2649,-5.2645,-5.261,-5.27,-5.2712,-5.2784,-5.2641,-5.2927,-5.2938,-5.2947,-5.3073,-5.3095,-5.3114,0,0,0,0,0,-5.2578,-5.2683,-5.2648,-5.266,-5.2707,-5.2766,-5.2771,-5.2729,-5.2668,-5.2717,-5.2702,-5.2645,-5.2769,-5.2709,-5.2723,-5.2797,-5.2923,-5.2935,-5.2946,-5.3063,-5.3091,-5.3114,0,0,0,0,0,0,-5.27,-5.2681,-5.2642,-5.2748,-5.2759,-5.2746,-5.2806,-5.2759,-5.2788,-5.2776,-5.2723,-5.2723,-5.2819,-5.2816,-5.275,-5.2922,-5.2835,-5.285,-5.292,-5.2946,-5.2966,-5.2965,-5.2645,0,0,0,0,0,-5.274,-5.2788,-5.2768,-5.2863,-5.2871,-5.2838,-5.2862,-5.2828,-5.2838,-5.2842,-5.2834,-5.2846,-5.2888,-5.2917,-5.2954,-5.3072,-5.307,-5.3129,-5.315,-5.3167,-5.3181,-5.3244,-5.327,-5.2991,-5.299,-5.299,0,0,-5.2821,-5.2817,-5.285,-5.2888,-5.2893,-5.2945,-5.2843,-5.2902,-5.294,-5.2852,-5.2932,-5.2927,-5.2937,-5.3039,-5.3084,-5.304,-5.3258,-5.3182,-5.3196,-5.3201,-5.3259,-5.3285,-5.3309,-5.2998,-5.2997,-5.2996,0,0,-5.2997,-5.2998,-5.3077,-5.3084,-5.3092,-5.307,-5.3089,-5.3084,-5.3076,-5.3156,-5.3091,-5.3136,-5.3209,-5.3219,-5.3234,-5.3414,-5.3362,-5.3427,-5.3536,-5.3598,-5.362,-5.364,-5.3704,-5.3728,-5.3441,-5.3441,-5.3441,0,-5.3097,-5.3172,-5.3124,-5.3188,-5.3207,-5.3128,-5.3209,-5.3218,-5.3239,-5.3254,-5.3204,-5.3294,-5.3295,-5.3399,-5.3443,-5.3458,-5.3479,-5.3427,-5.3621,-5.364,-5.3657,-5.3718,-5.3743,-5.3449,-5.3448,-5.3447,-5.3447,0,-5.3296,-5.3349,-5.3412,-5.3434,-5.346,-5.3532,-5.3495,-5.3527,-5.3491,-5.3474,-5.3557,-5.3556,-5.3592,-5.3614,-5.358,-5.3714,-5.3686,-5.363,-5.3542,-5.3692,-5.3749,-5.3772,-5.346,-5.3458,-5.3455,-5.3453,0,0,-5.3549,-5.3543,-5.3567,-5.3576,-5.358,-5.362,-5.3689,-5.3723,-5.3752,-5.3769,-5.3826,-5.389,-5.3837,-5.3854,-5.3821,-5.3875,-5.4019,-5.3812,-5.3811,-5.3851,-5.4167,-5.421,-5.4238,-5.3984,-5.3988,-5.3992,-5.4166,0,-5.3721,-5.3837,-5.3796,-5.3915,-5.3964,-5.389,-5.395,-5.396,-5.3946,-5.3986,-5.397,-5.4017,-5.3944,-5.3954,-5.4004,-5.3991,-5.4081,-5.3977,-5.4037,-5.404,-5.4038,-5.4267,-5.4312,-5.4477,-5.4188,-5.4192,-5.4194,0,-5.3937,-5.3962,-5.4086,-5.4082,-5.4101,-5.4155,-5.4184,-5.4223,-5.4232,-5.4218,-5.4237,-5.4192,-5.426,-5.4172,-5.4265,-5.4195,-5.4218,-5.4215,-5.422,-5.4224,-5.4127,-5.4278,-5.4528,-5.4553,-5.4229,-5.4226,-5.4224,0,-5.411,-5.4175,-5.4257,-5.4267,-5.4264,-5.4304,-5.4305,-5.4309,-5.4333,-5.4358,-5.4373,-5.4406,-5.4425,-5.4452,-5.4417,-5.4356,-5.4516,-5.4425,-5.4507,-5.4508,-5.4544,-5.4543,-5.4802,-5.4558,-5.4558,-5.4557,-5.4557,0,-5.4306,-5.4385,-5.4335,-5.4386,-5.4473,-5.4425,-5.4512,-5.4504,-5.4509,-5.4558,-5.4496,-5.4544,-5.4495,-5.4538,-5.4511,-5.4593,-5.4602,-5.4593,-5.4585,-5.4599,-5.46,-5.4613,-5.4601,-5.4564,-5.4562,-5.4561,-5.456,0,-5.4514,-5.4484,-5.4569,-5.4559,-5.4558,-5.4623,-5.4614,-5.4661,-5.4643,-5.4706,-5.4718,-5.469,-5.4737,-5.4705,-5.4753,-5.4735,-5.4842,-5.4818,-5.4839,-5.4833,-5.4917,-5.491,-5.5194,-5.523,-5.4963,-5.4966,-5.4968,0,-5.4641,-5.47,-5.4697,-5.4725,-5.4729,-5.4775,-5.4799,-5.4754,-5.4781,-5.4797,-5.4843,-5.4885,-5.4916,-5.4995,-5.498,-5.5016,-5.4993,-5.509,-5.4998,-5.501,-5.4995,-5.4992,-5.4998,-5.5109,-5.5112,-5.5115,-5.5117,0,-5.4871,-5.4853,-5.4889,-5.4921,-5.495,-5.4973,-5.4991,-5.5017,-5.4972,-5.5006,-5.5054,-5.5078,-5.5127,-5.517,-5.52,-5.5201,-5.5153,-5.5146,-5.5167,-5.5182,-5.5192,-5.5188,-5.4891,-5.514,-5.5137,-5.5136,-5.5134,-5.5133,-5.5043,-5.5092,-5.5097,-5.514,-5.5148,-5.5166,-5.521,-5.5197,-5.5236,-5.5272,-5.5243,-5.53,-5.5309,-5.5344,-5.5352,-5.5396,-5.5357,-5.5387,-5.5395,-5.5403,-5.5415,-5.5184,-5.5402,-5.5401,-5.54,-5.54,-5.5399,0,-5.527,-5.5269,-5.5309,-5.5335,-5.5369,-5.5319,-5.5336,-5.5368,-5.5419,-5.543,-5.5462,-5.5517,-5.5559,-5.5547,-5.5584,-5.5622,-5.56,-5.5633,-5.563,-5.5632,-5.5448,-5.5427,-5.565,-5.565,-5.565,-5.565,-5.565,-5.565,-5.5392,-5.5472,-5.5455,-5.554,-5.5539,-5.5594,-5.5608,-5.5625,-5.5634,-5.5698,-5.5732,-5.5723,-5.5726,-5.5762,-5.5799,-5.5794,-5.5811,-5.5852,-5.584,-5.5669,-5.5644,-5.5621,-5.56,-5.5856,-5.5857,-5.6019,-5.6021,-5.6022]},{"header":{"parameterUnit":"m.s-1","parameterCategory":1,"la1":30.2991,"la2":30.254,"lo1":-89.0895,"lo2":-89.0444,"dy":0.0017,"dx":0.0017,"nx":28,"ny":28,"refTime":"2024-03-24T03:00:00:Z","depth":0,"parameterNumber":3,"parameterNumberName":"V-component_of_WINDS"},"data":[0,0,0,0,0,0,0,0,0,0,0,0,0,0,0,0,0,0,0,0,0,0,0,0,0,0,0,0,0,0,0,0,0,0,0,0,0,0,0,0,0,0,0,0,0,0,0,0,0,0,0,0,0,0,0,0,0,0,-0.0571,-0.0572,0,-0.0585,-0.0585,-0.0586,-0.0579,-0.0578,-0.0578,-0.0578,-0.0592,-0.0593,-0.0594,0,0,0,0,0,0,0,0,0,0,0,0,0,-0.0538,-0.0539,-0.0571,-0.0572,-0.0572,-0.0585,-0.0585,-0.0586,-0.0579,-0.0578,-0.0578,-0.0577,-0.0592,-0.0593,-0.0594,0,0,0,0,0,0,0,0,0,0,0,0,0,-0.0552,-0.0539,-0.0571,-0.057,-0.057,-0.0585,-0.0585,-0.0586,-0.0579,-0.0578,-0.0578,-0.0577,-0.0592,-0.0593,-0.0594,-0.0612,0,0,-0.0597,-0.0598,0,0,0,0,0,0,0,0,-0.0552,-0.0554,-0.057,-0.057,-0.057,-0.058,-0.0579,-0.0594,-0.0579,-0.0575,-0.0578,-0.0577,-0.0589,-0.059,-0.0594,-0.0612,-0.0613,-0.0597,-0.0598,-0.0599,-0.0599,0,0,0,0,0,0,0,-0.0551,-0.0553,-0.0577,-0.057,-0.057,-0.0568,-0.057,-0.0582,-0.0585,-0.0576,-0.0575,-0.0577,-0.0589,-0.0593,-0.0594,-0.0613,-0.0597,-0.0598,-0.0599,-0.06,-0.0645,-0.0646,0,0,0,0,0,0,-0.055,-0.0552,-0.0576,-0.0577,-0.0559,-0.0569,-0.0571,-0.0577,-0.0585,-0.0585,-0.0577,-0.0577,-0.0591,-0.0593,-0.0595,-0.0615,-0.0599,-0.06,-0.06,-0.0645,-0.0645,-0.0646,0,0,0,0,0,0,-0.0549,-0.0552,-0.0576,-0.0565,-0.0568,-0.057,-0.0578,-0.0578,-0.0582,-0.0586,-0.0587,-0.0581,-0.0591,-0.0593,-0.0607,-0.0615,-0.06,-0.0601,-0.0644,-0.0645,-0.0646,-0.0656,0,0,0,0,0,0,-0.0548,-0.0552,-0.0559,-0.0565,-0.0568,-0.0588,-0.0578,-0.0578,-0.0584,-0.0583,-0.059,-0.059,-0.0591,-0.0605,-0.0608,-0.0616,-0.0602,-0.0643,-0.0645,-0.0646,-0.0655,-0.0657,-0.0659,0,0,0,0,0,-0.0547,-0.0562,-0.0559,-0.0562,-0.0577,-0.0589,-0.0591,-0.0591,-0.0584,-0.0591,-0.0594,-0.059,-0.0614,-0.0607,-0.061,-0.0619,-0.0643,-0.0644,-0.0645,-0.0654,-0.0657,-0.0659,0,0,0,0,0,0,-0.0557,-0.0563,-0.056,-0.0577,-0.0582,-0.0588,-0.0597,-0.0594,-0.0601,-0.06,-0.0599,-0.0601,-0.0615,-0.0618,-0.0611,-0.0635,-0.0627,-0.0629,-0.0633,-0.0635,-0.0637,-0.0636,-0.0603,0,0,0,0,0,-0.0561,-0.0571,-0.0575,-0.0589,-0.0592,-0.0594,-0.0599,-0.0598,-0.0604,-0.0606,-0.061,-0.0616,-0.0624,-0.063,-0.0638,-0.0655,-0.0656,-0.0662,-0.0664,-0.0666,-0.0668,-0.0676,-0.0678,-0.065,-0.065,-0.065,0,0,-0.057,-0.0574,-0.058,-0.0592,-0.0596,-0.0605,-0.0596,-0.0607,-0.0613,-0.0608,-0.0621,-0.0624,-0.063,-0.0645,-0.0652,-0.0648,-0.0675,-0.0668,-0.0669,-0.067,-0.0677,-0.068,-0.0682,-0.0651,-0.0651,-0.0651,0,0,-0.0591,-0.0595,-0.0607,-0.0611,-0.0617,-0.0618,-0.0621,-0.0626,-0.0628,-0.0641,-0.0637,-0.0644,-0.066,-0.0664,-0.0668,-0.0688,-0.0685,-0.0691,-0.0701,-0.0709,-0.0711,-0.0713,-0.0719,-0.0722,-0.0693,-0.0693,-0.0693,0,-0.0602,-0.0615,-0.0614,-0.0624,-0.0629,-0.0624,-0.0635,-0.064,-0.0648,-0.0651,-0.0647,-0.0664,-0.0668,-0.0684,-0.0689,-0.0692,-0.0695,-0.069,-0.0711,-0.0713,-0.0715,-0.0721,-0.0723,-0.0693,-0.0693,-0.0693,-0.0693,0,-0.0627,-0.0637,-0.0646,-0.0653,-0.0659,-0.067,-0.067,-0.0675,-0.0673,-0.0674,-0.0687,-0.0691,-0.07,-0.0703,-0.0702,-0.0718,-0.0715,-0.0711,-0.0703,-0.0718,-0.0724,-0.0726,-0.0694,-0.0694,-0.0694,-0.0694,0,0,-0.0656,-0.0661,-0.0665,-0.0667,-0.0673,-0.068,-0.069,-0.0698,-0.0702,-0.0708,-0.0716,-0.0728,-0.0723,-0.0728,-0.0727,-0.0734,-0.0748,-0.0728,-0.0728,-0.0731,-0.0765,-0.0768,-0.0771,-0.0746,-0.0746,-0.0747,-0.0764,0,-0.0677,-0.0694,-0.0693,-0.0709,-0.0717,-0.0712,-0.072,-0.0725,-0.0725,-0.0732,-0.0733,-0.0741,-0.0735,-0.0737,-0.0744,-0.0745,-0.0755,-0.0744,-0.0753,-0.0753,-0.0751,-0.0774,-0.0778,-0.0794,-0.0767,-0.0767,-0.0767,0,-0.0704,-0.0709,-0.0726,-0.0729,-0.0732,-0.074,-0.0746,-0.0753,-0.0757,-0.0757,-0.0761,-0.0758,-0.0768,-0.0759,-0.0772,-0.0765,-0.0768,-0.0769,-0.077,-0.0771,-0.0761,-0.0775,-0.0799,-0.0802,-0.0771,-0.0771,-0.077,0,-0.0722,-0.0734,-0.0745,-0.0748,-0.0751,-0.0757,-0.0758,-0.0762,-0.0766,-0.0771,-0.0774,-0.078,-0.0784,-0.0788,-0.0787,-0.0781,-0.08,-0.0792,-0.08,-0.08,-0.0804,-0.0804,-0.0829,-0.0807,-0.0807,-0.0807,-0.0807,0,-0.0745,-0.0755,-0.0753,-0.076,-0.0771,-0.0769,-0.078,-0.0781,-0.0784,-0.079,-0.0786,-0.0793,-0.0791,-0.0797,-0.0796,-0.0806,-0.0808,-0.0808,-0.0808,-0.0808,-0.0808,-0.0811,-0.0809,-0.0808,-0.0807,-0.0807,-0.0807,0,-0.0767,-0.0766,-0.0778,-0.078,-0.0781,-0.0789,-0.079,-0.0796,-0.0796,-0.0805,-0.0807,-0.0807,-0.0813,-0.0813,-0.0821,-0.082,-0.0832,-0.0831,-0.0831,-0.083,-0.0838,-0.0837,-0.0866,-0.0869,-0.0845,-0.0845,-0.0846,0,-0.0782,-0.079,-0.0792,-0.0796,-0.0798,-0.0804,-0.0808,-0.0805,-0.081,-0.0814,-0.0819,-0.0826,-0.0831,-0.0842,-0.0842,-0.0848,-0.0846,-0.0856,-0.0847,-0.0847,-0.0846,-0.0845,-0.0845,-0.0858,-0.0858,-0.0858,-0.0858,0,-0.0808,-0.0806,-0.0812,-0.0817,-0.0821,-0.0825,-0.0828,-0.0832,-0.0829,-0.0834,-0.0841,-0.0844,-0.0852,-0.0858,-0.0863,-0.0865,-0.0861,-0.0861,-0.0863,-0.0863,-0.0863,-0.0862,-0.0835,-0.086,-0.086,-0.086,-0.086,-0.086,-0.0826,-0.0832,-0.0834,-0.084,-0.0842,-0.0845,-0.085,-0.085,-0.0856,-0.0861,-0.0859,-0.0867,-0.0869,-0.0875,-0.0877,-0.0883,-0.0879,-0.0883,-0.0883,-0.0884,-0.0885,-0.0862,-0.0884,-0.0884,-0.0884,-0.0884,-0.0884,0,-0.0851,-0.0852,-0.0857,-0.0861,-0.0866,-0.0861,-0.0864,-0.0868,-0.0874,-0.0877,-0.0881,-0.0888,-0.0894,-0.0894,-0.0899,-0.0903,-0.0901,-0.0905,-0.0904,-0.0904,-0.0888,-0.0885,-0.0906,-0.0906,-0.0906,-0.0906,-0.0906,-0.0906,-0.0864,-0.0874,-0.0872,-0.0883,-0.0883,-0.089,-0.0892,-0.0894,-0.0896,-0.0904,-0.0908,-0.0908,-0.0909,-0.0914,-0.0919,-0.0919,-0.092,-0.0924,-0.0923,-0.0908,-0.0906,-0.0904,-0.0901,-0.0925,-0.0925,-0.0939,-0.0939,-0.0939]}]]